Location: Kimberly
(42.5380°N, 114.3640°W)
Time: 13:22:57
(UTC-06:00)

Envisat - Visible Passes

Search period start: 21 October 2017 00:00
Search period end: 31 October 2017 00:00
Orbit: 764 x 766 km, 98.2° (Epoch: 21 October)

Date Brightness Start Highest point End Pass type
(mag) Time Alt. Az. Time Alt. Az. Time Alt. Az.
21 Oct 3.9 20:42:01 31° NE 20:42:01 31° NE 20:45:17 10° N visible
21 Oct 5.4 22:22:14 19° NW 22:22:14 19° NW 22:24:03 10° NW visible
22 Oct 4.5 20:05:02 17° NE 20:05:02 17° NE 20:07:39 10° NNE visible
22 Oct 4.5 21:45:15 30° NNW 21:45:15 30° NNW 21:47:52 10° NNW visible
23 Oct 4.1 21:08:16 34° N 21:08:16 34° N 21:11:10 10° N visible
23 Oct 6.0 22:48:29 10° NW 22:48:29 10° NW 22:48:38 10° NW visible
24 Oct 4.3 20:31:16 24° NE 20:31:16 24° NE 20:34:00 10° N visible
24 Oct 5.3 22:11:29 19° NW 22:11:29 19° NW 22:13:10 10° NNW visible
25 Oct 4.8 19:54:17 14° NE 19:54:17 14° NE 19:56:02 10° NNE visible
25 Oct 4.6 21:34:30 27° NNW 21:34:30 27° NNW 21:36:49 10° NNW visible
26 Oct 4.3 20:57:30 27° NNE 20:57:30 27° NNE 20:59:58 10° N visible
26 Oct 5.9 22:37:44 11° NW 22:37:44 11° NW 22:38:03 10° NW visible
27 Oct 4.5 20:20:31 19° NNE 20:20:31 19° NNE 20:22:38 10° NNE visible
27 Oct 5.3 22:00:44 19° NW 22:00:44 19° NW 22:02:13 10° NNW visible
28 Oct 5.0 19:43:31 11° NE 19:43:31 11° NE 19:44:07 10° NE visible
28 Oct 4.7 21:23:44 24° NNW 21:23:44 24° NNW 21:25:43 10° NNW visible
29 Oct 4.6 20:46:44 22° NNE 20:46:44 22° NNE 20:48:44 10° N visible
29 Oct 5.9 22:26:57 12° NW 22:26:57 12° NW 22:27:19 10° NW visible
30 Oct 4.8 20:09:44 15° NNE 20:09:44 15° NNE 20:11:12 10° NNE visible
30 Oct 5.3 21:49:57 18° NNW 21:49:57 18° NNW 21:51:14 10° NNW visible
